| time (UTC) | temp F | wind direction | speed knots | gust knots | rain 1hr in | rain 24hr in | rain mn in | humidity % | barometer mb |
| 20260504100410 | 48 | 185 | 3.5 | 8.7 | 0.00 | 0.00 | 0.00 | 65 | 1009.8 |
| 20260504080408 | 49 | 177 | 3.5 | 7.8 | 0.00 | 0.00 | 0.00 | 63 | 1009.9 |
| 20260504070226 | 49 | 271 | 3.5 | 9.6 | 0.00 | 0.00 | 0.00 | 61 | 1010.1 |
| 20260504050224 | 50 | 173 | 3.5 | 7.8 | 0.00 | 0.00 | 0.00 | 60 | 1010.4 |
| 20260504044727 | 51 | 175 | 2.6 | 8.7 | 0.00 | 0.00 | 0.00 | 61 | 1010.5 |
| 20260504043225 | 51 | 192 | 2.6 | 8.7 | 0.00 | 0.00 | 0.00 | 60 | 1010.6 |
| 20260504041726 | 51 | 33 | 3.5 | 8.7 | 0.00 | 0.00 | 0.00 | 60 | 1010.6 |
| 20260504040225 | 51 | 271 | 3.5 | 9.6 | 0.00 | 0.00 | 0.00 | 60 | 1010.6 |
| 20260504034726 | 51 | 192 | 2.6 | 7.0 | 0.00 | 0.00 | 0.00 | 62 | 1010.6 |
| 20260504033226 | 51 | 185 | 2.6 | 7.8 | 0.00 | 0.00 | 0.00 | 63 | 1010.6 |
| 20260504031725 | 51 | 246 | 3.5 | 10.4 | 0.00 | 0.00 | 0.00 | 63 | 1010.9 |
| 20260504030226 | 50 | 270 | 2.6 | 7.8 | 0.00 | 0.00 | 0.00 | 64 | 1010.9 |
| 20260504024727 | 50 | 167 | 1.7 | 6.1 | 0.00 | 0.00 | 0.00 | 65 | 1011.1 |
| 20260504023209 | 50 | 273 | 3.5 | 7.8 | 0.00 | 0.00 | 0.00 | 65 | 1011.3 |
| 20260504021706 | 50 | 265 | 6.1 | 13.9 | 0.00 | 0.00 | 0.00 | 66 | 1011.5 |
| 20260504020202 | 49 | 355 | 8.7 | 22.6 | 0.00 | 0.00 | 0.00 | 69 | 1011.9 |
| 20260504014702 | 51 | 305 | 11.3 | 22.6 | 0.00 | 0.00 | 0.00 | 62 | 1011.9 |
| 20260504014538 | 51 | 262 | 4.3 | 11.3 | 0.00 | 0.00 | 0.00 | 58 | 1011.4 |
| 20260504012403 | 52 | 259 | 7.8 | 17.4 | 0.00 | 0.00 | 0.00 | 58 | 1011.2 |
| 20260504010202 | 52 | 280 | 7.8 | 16.5 | 0.00 | 0.00 | 0.00 | 59 | 1011.2 |
| 20260504004700 | 52 | 297 | 4.3 | 12.2 | 0.00 | 0.00 | 0.00 | 58 | 1011.2 |
| 20260504004550 | 51 | 278 | 2.6 | 7.0 | 0.00 | 0.00 | 0.00 | 58 | 1010.9 |
| 20260504001702 | 51 | 238 | 3.5 | 9.6 | 0.00 | 0.00 | 0.00 | 59 | 1010.6 |
| 20260504000200 | 51 | 203 | 3.5 | 9.6 | 0.00 | 0.00 | 0.00 | 61 | 1010.5 |
| 20260503235411 | 51 | 180 | 4.3 | 14.8 | 0.00 | 0.00 | 0.00 | 61 | 1011.0 |
| 20260503233159 | 50 | 286 | 7.0 | 22.6 | 0.00 | 0.00 | 0.00 | 62 | 1011.2 |
| 20260503231659 | 51 | 311 | 7.8 | 12.2 | 0.00 | 0.00 | 0.00 | 60 | 1011.4 |
| 20260503230013 | 52 | 262 | 2.6 | 6.1 | 0.00 | 0.00 | 0.00 | 57 | 1010.8 |
| 20260503224512 | 52 | 294 | 4.3 | 9.6 | 0.00 | 0.00 | 0.00 | 56 | 1010.6 |
| 20260503222954 | 52 | 310 | 5.2 | 11.3 | 0.00 | 0.00 | 0.00 | 54 | 1010.6 |
| 20260503221455 | 53 | 188 | 6.1 | 11.3 | 0.00 | 0.00 | 0.00 | 55 | 1010.7 |
| 20260503215954 | 53 | 320 | 6.1 | 12.2 | 0.00 | 0.00 | 0.00 | 54 | 1010.7 |
| 20260503215155 | 52 | 288 | 6.1 | 15.6 | 0.00 | 0.00 | 0.00 | 54 | 1010.9 |
| 20260503212953 | 52 | 292 | 6.1 | 15.6 | 0.00 | 0.00 | 0.00 | 56 | 1010.8 |
| 20260503211454 | 52 | 277 | 6.1 | 11.3 | 0.00 | 0.00 | 0.00 | 56 | 1010.8 |
| 20260503205954 | 51 | 307 | 7.0 | 13.0 | 0.00 | 0.00 | 0.00 | 55 | 1010.9 |
| 20260503204453 | 51 | 296 | 7.8 | 13.9 | 0.00 | 0.00 | 0.00 | 56 | 1011.0 |
| 20260503202951 | 51 | 304 | 8.7 | 16.5 | 0.00 | 0.00 | 0.00 | 55 | 1011.0 |
| 20260503201453 | 51 | 262 | 9.6 | 17.4 | 0.00 | 0.00 | 0.00 | 56 | 1011.1 |
| 20260503195949 | 51 | 298 | 9.6 | 18.2 | 0.00 | 0.00 | 0.00 | 59 | 1011.4 |
| 20260503195150 | 50 | 289 | 6.1 | 13.0 | 0.00 | 0.00 | 0.00 | 60 | 1011.3 |
| 20260503193655 | 50 | 280 | 7.0 | 12.2 | 0.00 | 0.00 | 0.00 | 59 | 1011.5 |
| 20260503191451 | 49 | 271 | 7.0 | 13.9 | 0.00 | 0.00 | 0.00 | 59 | 1011.7 |
| 20260503185948 | 50 | 225 | 7.8 | 13.9 | 0.00 | 0.00 | 0.00 | 58 | 1011.8 |
| 20260503185158 | 50 | 279 | 7.0 | 14.8 | 0.00 | 0.00 | 0.00 | 57 | 1012.1 |
| 20260503182949 | 50 | 294 | 7.8 | 13.9 | 0.00 | 0.00 | 0.00 | 59 | 1012.2 |
| 20260503181451 | 49 | 306 | 9.6 | 16.5 | 0.00 | 0.00 | 0.00 | 58 | 1012.3 |
| 20260503175952 | 49 | 289 | 7.0 | 14.8 | 0.00 | 0.00 | 0.00 | 59 | 1012.4 |
| 20260503174453 | 49 | 290 | 6.1 | 15.6 | 0.00 | 0.00 | 0.00 | 55 | 1012.6 |
| 20260503173704 | 48 | 309 | 6.1 | 15.6 | 0.00 | 0.00 | 0.00 | 57 | 1012.7 |
| 20260503171454 | 47 | 311 | 7.0 | 11.3 | 0.00 | 0.00 | 0.00 | 56 | 1012.8 |
| 20260503131331 | 40 | 293 | 6.1 | 12.2 | 0.00 | 0.00 | 0.00 | 76 | 1014.4 |